Reus, Spain

8:13 PM CEST en Mayo 23, 2018 (GMT +0200)
Reus Air Base

Tiempo Historia de LERS - Mayo, 2018

Change the Weather History Date:

Jueves, Mayo 17, 2018

  Actual Average Record
Temperature  
Temperatura media 66 ° F -  
Temperatura máxima 76 ° F 75 ° F 84 ° F (2007)
Temperatura mínima 55 ° F 62 ° F 48 ° F (2013)
Growing Degree Days 16 (Base 50)    
Moisture  
Punto de rocío 49 ° F    
Average Humidity 56    
Maximum Humidity 94    
Minimum Humidity 19    
Precipitación  
Precipitación 0.00 pul - - ()
Presión al nivel del mar  
Presión al nivel del mar 30.01 pul    
Viento  
Velocidad del viento 3 mph ()    
Velocidad máxima del viento 12 mph    
Max Gust Speed -    
Visibilidad 11.7 Millas    
Eventos Lluvia    
Averages and records for this station are not official NWS values.
T = Trace of Precipitation, MM = Missing Value Source: Averaged Metar Reports

Daily Weather History Graph

Daily Weather History Graph

Search for Another Location

Airport or City:

Astronomía

May. 17, 2018 Salida Puesta
Hora real 6:35 AM CEST 9:08 PM CEST
Crepúsculo civil 6:03 AM CEST 9:40 PM CEST
Crepúsculo náutico 5:24 AM CEST 10:19 PM CEST
Crepúsculo astronómico 4:40 AM CEST 11:04 PM CEST
Luna 8:25 AM CEST (5/17) 11:26 PM CEST (5/17)
Horas de luz 15h 36m
Horas de luz
14h 33m
Creciente, 5% of the Moon is Illuminated
May 17
Creciente
May 22
Cuarto creciente
May 29
Luna llena
Jun 6
Cuarto menguante
Jun 13
Nueva

Hourly Weather History & Observations

Hora (CEST) Temp. Punto de rocío Humedad Presión Visibilidad Wind Dir Velocidad del viento Velocidad de ráfagas Precip Eventos Condiciones
12:00 AM 57.2 ° F 53.6 ° F 88% 30.01 pul - Norte 2.3 mph - N/A   Despejado
1:00 AM 55 ° F 51 ° F 81% 30.02 pul 11 mi NE 1.2 mph - -  
1:00 AM 55.4 ° F 51.8 ° F 88% 30.01 pul 6.2 mi NNE 2.3 mph - N/A   Desconocido
1:30 AM 55.4 ° F 53.6 ° F 94% 30.01 pul - Variable 1.2 mph - N/A   Despejado
2:00 AM 57.2 ° F 53.6 ° F 88% 30.01 pul - Sin viento Sin viento - N/A   Despejado
2:30 AM 55.4 ° F 53.6 ° F 94% 30.01 pul - NE 3.5 mph - N/A   Despejado
3:00 AM 56 ° F 52 ° F 83% 30.02 pul 19 mi NE 2.3 mph - -  
3:00 AM 57.2 ° F 53.6 ° F 88% 30.01 pul - NNE 2.3 mph - N/A   Despejado
3:30 AM 57.2 ° F 53.6 ° F 88% 30.01 pul - Sin viento Sin viento - N/A   Despejado
4:00 AM 58 ° F 52 ° F 73% 30.02 pul 19 mi NNE 1.2 mph - -  
4:00 AM 55.4 ° F 53.6 ° F 94% 30.01 pul - Variable 2.3 mph - N/A   Despejado
4:30 AM 57.2 ° F 51.8 ° F 82% 30.01 pul - Norte 2.3 mph - N/A   Despejado
5:00 AM 58 ° F 51 ° F 71% 30.02 pul 19 mi Norte 3.5 mph - -  
5:00 AM 57.2 ° F 51.8 ° F 82% 30.01 pul - Variable 1.2 mph - N/A   Despejado
5:30 AM 55.4 ° F 51.8 ° F 88% 30.01 pul - Variable 1.2 mph - N/A   Despejado
6:00 AM 57 ° F 52 ° F 78% 30.03 pul 19 mi Norte 3.5 mph - -  
6:00 AM 57.2 ° F 51.8 ° F 82% 30.01 pul - Variable 2.3 mph - N/A   Despejado
6:30 AM 55.4 ° F 51.8 ° F 88% 30.01 pul - Variable 1.2 mph - N/A   Despejado
7:00 AM 55.4 ° F 51.8 ° F 88% 30.01 pul 6.2 mi NNE 1.2 mph - N/A   Parcialmente nublado
7:30 AM 60.8 ° F 51.8 ° F 72% 30.01 pul 6.2 mi Norte 3.5 mph - N/A   Parcialmente nublado
8:00 AM 61 ° F 51 ° F 61% 30.02 pul 12 mi Norte 1.2 mph - -   Parcialmente nublado
8:00 AM 62.6 ° F 53.6 ° F 72% 30.01 pul 6.2 mi Variable 1.2 mph - N/A Lluvia Lluvia débil
8:30 AM 64.4 ° F 53.6 ° F 68% 30.01 pul 6.2 mi Sin viento Sin viento - N/A   Parcialmente nublado
9:00 AM 66.2 ° F 50.0 ° F 56% 30.01 pul 6.2 mi Variable 2.3 mph - N/A   Parcialmente nublado
9:30 AM 69.8 ° F 48.2 ° F 46% 30.01 pul - Sin viento Sin viento - N/A   Despejado
10:00 AM 68 ° F 47 ° F 36% 30.01 pul 19 mi Sin viento Sin viento - -  
10:00 AM 69.8 ° F 48.2 ° F 46% 30.01 pul - Sin viento Sin viento - N/A   Despejado
10:30 AM 71.6 ° F 48.2 ° F 43% 30.01 pul - Variable 1.2 mph - N/A   Despejado
11:00 AM 73 ° F 47 ° F 29% 30.00 pul 12 mi SE 2.3 mph - -   Nubes dispersas
11:00 AM 73.4 ° F 46.4 ° F 38% 30.01 pul - Variable 1.2 mph - N/A   Despejado
11:30 AM 75.2 ° F 53.6 ° F 47% 30.01 pul 6.2 mi Variable 3.5 mph - N/A   Parcialmente nublado
12:00 PM 75 ° F 53 ° F 35% 30.00 pul 19 mi SE 5.8 mph - -  
12:00 PM 73.4 ° F 51.8 ° F 47% 30.01 pul 6.2 mi SE 5.8 mph - N/A   Parcialmente nublado
12:30 PM 75.2 ° F 48.2 ° F 38% 30.01 pul 6.2 mi SSE 5.8 mph - N/A   Parcialmente nublado
1:00 PM 75 ° F 44 ° F 22% 29.99 pul 19 mi SSE 8.1 mph - -  
1:00 PM 75.2 ° F 42.8 ° F 31% 30.01 pul 6.2 mi SE 6.9 mph - N/A   Parcialmente nublado
1:30 PM 75.2 ° F 44.6 ° F 34% 30.01 pul 6.2 mi SE 9.2 mph - N/A   Parcialmente nublado
2:00 PM 75 ° F 45 ° F 23% 29.99 pul 17 mi SSE 10.4 mph - -   Parcialmente nublado
2:00 PM 75.2 ° F 44.6 ° F 34% 29.98 pul 6.2 mi SSE 9.2 mph - N/A   Parcialmente nublado
2:30 PM 73.4 ° F 41.0 ° F 31% 29.98 pul 6.2 mi SSE 9.2 mph - N/A   Parcialmente nublado
3:00 PM 74 ° F 41 ° F 19% 29.99 pul 19 mi Sur 9.2 mph - -  
3:00 PM 75.2 ° F 42.8 ° F 31% 29.98 pul 6.2 mi Sur 8.1 mph - N/A   Parcialmente nublado
3:30 PM 75.2 ° F 42.8 ° F 31% 29.98 pul 6.2 mi SSE 8.1 mph - N/A   Parcialmente nublado
4:00 PM 74 ° F 46 ° F 26% 29.98 pul 19 mi SSE 10.4 mph - -  
4:00 PM 73.4 ° F 44.6 ° F 36% 29.98 pul 6.2 mi SSE 8.1 mph - N/A   Parcialmente nublado
4:30 PM 73.4 ° F 46.4 ° F 38% 29.98 pul 6.2 mi Sur 10.4 mph - N/A   Parcialmente nublado
5:00 PM 74 ° F 48 ° F 28% 29.99 pul 19 mi Sur 11.5 mph - -   Nubes dispersas
5:00 PM 75.2 ° F 48.2 ° F 38% 29.98 pul 6.2 mi Sur 9.2 mph - N/A   Parcialmente nublado
5:30 PM 73.4 ° F 46.4 ° F 38% 29.98 pul 6.2 mi Sur 9.2 mph - N/A   Parcialmente nublado
6:00 PM 73.4 ° F 44.6 ° F 36% 29.98 pul 6.2 mi Sur 8.1 mph - N/A   Parcialmente nublado
6:30 PM 71.6 ° F 46.4 ° F 41% 29.98 pul 6.2 mi Sur 8.1 mph - N/A   Parcialmente nublado
7:00 PM 71 ° F 46 ° F 30% 30.00 pul 19 mi Sur 6.9 mph - -  
7:00 PM 71.6 ° F 48.2 ° F 43% 30.01 pul - SSO 4.6 mph - N/A   Despejado
7:30 PM 69.8 ° F 48.2 ° F 46% 30.01 pul - SE 4.6 mph - N/A   Despejado
8:00 PM 68 ° F 50 ° F 41% 30.01 pul 19 mi SE 3.5 mph - -   Nubes dispersas
8:00 PM 68.0 ° F 48.2 ° F 49% 30.01 pul - SE 3.5 mph - N/A   Despejado
8:30 PM 68.0 ° F 50.0 ° F 52% 30.01 pul - SSE 3.5 mph - N/A   Despejado
9:00 PM 65 ° F 50 ° F 49% 30.02 pul 19 mi SSE 2.3 mph - -  
9:00 PM 66.2 ° F 50.0 ° F 56% 30.01 pul - Variable 1.2 mph - N/A   Despejado
9:30 PM 64.4 ° F 51.8 ° F 64% 30.01 pul - Sin viento Sin viento - N/A   Despejado
10:00 PM 63 ° F 51 ° F 56% 30.03 pul 19 mi Sur 2.3 mph - -  
10:00 PM 62.6 ° F 51.8 ° F 68% 30.01 pul - SSO 1.2 mph - N/A   Despejado
10:30 PM 62.6 ° F 53.6 ° F 72% 30.04 pul - SSO 1.2 mph - N/A   Despejado
11:00 PM 63 ° F 52 ° F 57% 30.05 pul 19 mi Sin viento Sin viento - -  
11:00 PM 62.6 ° F 53.6 ° F 72% 30.04 pul - OSO 1.2 mph - N/A   Despejado
11:30 PM 64.4 ° F 51.8 ° F 64% 30.04 pul - Oeste 2.3 mph - N/A   Despejado